FW4179 Weather Reports


time (UTC)temp
C
wind
direction
speed
KPH
gust
KPH
rain 1hr
cm
rain 24hr
cm
rain mn
cm
humidity
%
barometer
mb
20260902014557 27 138 1.6 6.4 0.00 0.00 0.00 77 1019.5
20260902013055 28 0 0.0 0.0 0.00 0.00 0.00 76 1019.2
20260902011557 28 0 0.0 0.0 0.00 0.00 0.00 74 1019.1
20260902010105 29 0 0.0 0.0 0.00 0.00 0.00 72 1019.0
20260902004550 30 0 0.0 3.2 0.00 0.00 0.00 70 1018.9
20260902003050 31 0 0.0 0.0 0.00 0.00 0.00 64 1019.0
20260902001607 32 0 0.0 0.0 0.00 0.00 0.00 59 1018.9
20260902000059 33 0 0.0 0.0 0.00 0.00 0.00 55 1019.0
20260901234558 35 0 0.0 0.0 0.00 0.00 0.00 54 1019.0
20260901233050 35 0 0.0 0.0 0.00 0.00 0.00 50 1019.0
20260901231556 36 0 0.0 0.0 0.00 0.00 0.00 48 1019.1
20260901230058 36 0 0.0 0.0 0.00 0.00 0.00 48 1019.1
20260901224603 36 0 0.0 0.0 0.00 0.00 0.00 48 1019.1
20260901223058 36 0 0.0 1.6 0.00 0.00 0.00 48 1019.1
20260901221603 36 0 0.0 4.8 0.00 0.00 0.00 50 1019.0
20260901220054 36 0 0.0 6.4 0.00 0.00 0.00 50 1019.1
20260901214602 36 0 0.0 3.2 0.00 0.00 0.00 52 1019.1
20260901213102 35 0 0.0 4.8 0.00 0.00 0.00 50 1019.2
20260901211551 36 0 0.0 4.8 0.00 0.00 0.00 51 1019.2
20260901210115 35 0 0.0 3.2 0.00 0.00 0.00 47 1019.3
20260901204552 35 0 0.0 4.8 0.00 0.00 0.00 49 1019.3
20260901203053 35 0 1.6 6.4 0.00 0.00 0.00 53 1019.5
20260901201558 35 28 0.0 4.8 0.00 0.00 0.00 56 1019.7
20260901200105 34 0 1.6 4.8 0.00 0.00 0.00 56 1019.8
20260901194556 33 0 1.6 6.4 0.00 0.00 0.00 57 1019.9
20260901193100 33 0 0.0 9.7 0.00 0.00 0.00 56 1019.9
20260901191555 33 287 4.8 9.7 0.00 0.00 0.00 55 1020.3
20260901190057 33 161 3.2 6.4 0.00 0.00 0.00 57 1020.5
20260901184606 32 0 0.0 4.8 0.00 0.00 0.00 61 1020.6
20260901183106 31 0 0.0 0.0 0.00 0.00 0.00 63 1020.7
20260901181603 32 0 0.0 0.0 0.00 0.00 0.00 64 1020.8
20260901180056 33 0 0.0 8.0 0.00 0.00 0.00 60 1020.9
20260901174556 32 0 0.0 11.3 0.00 0.00 0.00 64 1021.1
20260901173058 32 0 0.0 11.3 0.00 0.00 0.00 65 1021.3
20260901171602 32 0 0.0 8.0 0.00 0.00 0.00 68 1021.5
20260901170058 31 0 1.6 8.0 0.00 0.00 0.00 64 1021.8
20260901164554 32 306 0.0 6.4 0.00 0.00 0.00 69 1021.9
20260901163103 31 0 0.0 11.3 0.00 0.00 0.00 67 1022.1
20260901161619 31 0 3.2 11.3 0.00 0.00 0.00 67 1022.2
20260901154614 30 323 0.0 4.8 0.00 0.00 0.00 72 1022.2
20260901153106 30 240 0.0 6.4 0.00 0.00 0.00 72 1022.2
20260901151600 29 0 0.0 0.0 0.00 0.00 0.00 75 1022.1
20260901150107 29 0 0.0 9.7 0.00 0.00 0.00 74 1022.3
20260901144600 28 0 0.0 3.2 0.00 0.00 0.00 79 1022.3
20260901143059 27 0 0.0 6.4 0.00 0.00 0.00 80 1022.3
20260901141559 26 0 0.0 4.8 0.00 0.00 0.00 82 1022.3
20260901134556 25 0 0.0 0.0 0.00 0.00 0.00 86 1022.4
20260901133101 24 0 0.0 0.0 0.00 0.00 0.00 88 1022.3
20260901131602 23 0 0.0 0.0 0.00 0.00 0.00 91 1022.4
20260901130056 23 0 0.0 0.0 0.00 0.00 0.00 94 1022.4
20260901124558 22 0 0.0 0.0 0.00 0.00 0.00 95 1022.2
20260901123057 22 0 0.0 0.0 0.00 0.00 0.00 96 1022.0
20260901121558 22 0 0.0 0.0 0.00 0.00 0.00 96 1021.8
20260901120108 21 0 0.0 0.0 0.00 0.00 0.00 97 1021.5
20260901114606 21 0 0.0 0.0 0.00 0.00 0.00 97 1021.3
20260901113100 21 0 0.0 0.0 0.00 0.00 0.00 97 1021.1
20260901111602 21 0 0.0 0.0 0.00 0.00 0.00 97 1021.0
20260901110100 21 134 1.6 8.0 0.00 0.00 0.00 97 1020.6
20260901104602 21 144 0.0 0.0 0.00 0.00 0.00 97 1020.7
20260901103105 21 0 0.0 0.0 0.00 0.00 0.00 97 1020.6
20260901101556 21 0 0.0 0.0 0.00 0.00 0.00 96 1020.6
20260901100058 22 0 0.0 0.0 0.00 0.00 0.00 95 1020.6
20260901094601 22 0 0.0 3.2 0.00 0.00 0.00 95 1020.4
20260901093100 22 0 0.0 0.0 0.00 0.00 0.00 95 1020.4
20260901091615 22 0 0.0 0.0 0.00 0.00 0.00 94 1020.4
20260901090104 22 0 0.0 0.0 0.00 0.00 0.00 93 1020.2
20260901084604 22 0 0.0 0.0 0.00 0.00 0.00 93 1020.1
20260901083106 22 0 0.0 0.0 0.00 0.00 0.00 94 1020.1
20260901081552 22 0 0.0 0.0 0.00 0.00 0.00 95 1020.0
20260901074555 22 0 0.0 0.0 0.00 0.00 0.00 93 1020.0
20260901073105 23 0 0.0 0.0 0.00 0.00 0.00 92 1020.0
20260901071558 23 0 0.0 0.0 0.00 0.00 0.00 93 1020.2
20260901064558 22 0 0.0 0.0 0.00 0.00 0.00 93 1020.4
20260901063058 23 0 0.0 0.0 0.00 0.00 0.00 93 1020.3
20260901061557 23 0 0.0 0.0 0.00 0.00 0.00 92 1020.3
20260901060054 23 0 0.0 0.0 0.00 0.00 0.00 92 1020.4
20260901054600 23 0 0.0 0.0 0.00 0.00 0.00 91 1020.4
20260901053102 23 0 0.0 0.0 0.00 0.00 0.00 90 1020.5
20260901051559 23 0 0.0 0.0 0.00 0.00 0.00 89 1020.7
20260901050057 24 0 0.0 0.0 0.00 0.00 0.00 89 1020.5
20260901044551 24 0 0.0 0.0 0.00 0.00 0.00 88 1020.6
20260901043101 25 0 0.0 0.0 0.00 0.00 0.00 87 1020.6
20260901041555 25 0 0.0 0.0 0.00 0.00 0.00 86 1020.5
20260901040057 25 0 0.0 0.0 0.00 0.00 0.00 86 1020.4
20260901034557 25 0 0.0 0.0 0.00 0.00 0.00 86 1020.3
20260901033055 25 0 0.0 0.0 0.00 0.00 0.00 85 1020.4
20260901031554 26 0 0.0 0.0 0.00 0.00 0.00 84 1020.4
20260901030055 26 0 0.0 0.0 0.00 0.00 0.00 83 1020.4
20260901024550 26 0 0.0 0.0 0.00 0.00 0.00 82 1020.3
20260901023059 26 0 0.0 0.0 0.00 0.00 0.00 80 1020.2
20260901021554 26 0 0.0 0.0 0.00 0.00 0.00 80 1020.3
20260901020059 26 0 0.0 0.0 0.00 0.00 0.00 80 1020.1